Regional Weather Roundup
Issued by NWS

Home | Current Version | Previous Version | Graphics & Text | Print | Product List | Glossary On
Versions: 1 2 3 4 5 6 7 8 9 10 11 12 13 14 15 16 17 18 19 20 21 22 23 24 25 26 27 28 29 30 31 32 33 34 35 36 37 38 39 40 41 42 43 44 45 46 47 48 49 50
000
ASUS43 KLOT 250100
RWRIL

ILLINOIS REGIONAL WEATHER ROUNDUP
NATIONAL WEATHER SERVICE CHICAGO/ROMEOVILLE IL
700 PM CST WED DEC 24 2014

NOTE: "FAIR" INDICATES FEW OR NO CLOUDS BELOW 12,000 FEET WITH NO
SIGNIFICANT WEATHER AND/OR OBSTRUCTIONS TO VISIBILITY.

* THESE STATIONS ARE NOT UNDER NWS QUALITY CONTROL. THEY ALSO MAY NOT
  REPORT WEATHER SUCH AS PRECIPITATION OR FOG.

ILZ001-002-007-009-015-016-024-250200-
NORTHWEST ILLINOIS

CITY           SKY/WX    TMP DP  RH WIND       PRES   REMARKS
MOLINE         CLOUDY    37  31  78 W12       29.66R WCI  29
STERLING*      CLOUDY    36  30  80 NW14      29.62R WCI  27
$$

ILZ003-004-008-010-011-017-018-250200-
NORTH CENTRAL ILLINOIS

CITY           SKY/WX    TMP DP  RH WIND       PRES   REMARKS
ROCKFORD       DRIZZLE   35  32  88 W10       29.58R WCI  27
$$

ILZ005-006-012>014-019>023-250200-
NORTHEAST ILLINOIS

CITY           SKY/WX    TMP DP  RH WIND       PRES   REMARKS
CHICAGO-OHARE  CLOUDY    37  33  85 W12       29.53R WCI  29
CHICAGO-MIDWAY CLOUDY    38  35  89 W10       29.55R WCI  31
AURORA         CLOUDY    36  32  85 W13       29.57R WCI  27
WAUKEGAN       CLOUDY    36  33  89 W12G20    29.51R WCI  28
DUPAGE AIRPORT CLOUDY    36  32  85 W10       29.55R WCI  28
WHEELING       LGT RAIN  37  33  85 W10       29.55R WCI  30
NORTHERLY ISL    N/A     38  34  85 SW9         N/A  WCI  31
$$

LMZ740>746-250200-
SOUTHERN LAKE MICHIGAN

STATION/POSITION SKY/WX   TEMP    WIND        PRES    VSBY  WAVE
                          AIR SEA DIR/SP/G                  HT/PER
                          (F)     (DEG/KT/KT) (MB)    (MI)  (FT/S)
WAUKEGAN HARBOR            37                   N/A
HARRISON CRIB              38     270/ 15/ 19   N/A
BURNHAM HARBOR             38     250/  6/ 13   N/A
CALUMET HARBOR             37     250/  8/ 11  999.2R
MICHIGAN CITY              37     240/ 21/ 23   N/A
$$

ILZ025>027-034>036-040-047-049-050-058-095>099-250200-
WEST-CENTRAL ILLINOIS

CITY           SKY/WX    TMP DP  RH WIND       PRES   REMARKS
QUINCY         CLOUDY    37  31  78 W10       29.75R WCI  30
$$

ILZ028>032-037-038-041>044-048-051>054-059>061-250200-
CENTRAL ILLINOIS

CITY           SKY/WX    TMP DP  RH WIND       PRES   REMARKS
DECATUR        CLOUDY    37  33  85 W10       29.70R WCI  30
PEORIA         CLOUDY    38  32  79 W10G20    29.67R WCI  31
SPRINGFIELD    CLOUDY    37  33  85 W12       29.72R WCI  29
TAYLORVILLE    NOT AVBL
$$

ILZ033-039-045-046-055>057-062-063-250200-
EAST-CENTRAL ILLINOIS

CITY           SKY/WX    TMP DP  RH WIND       PRES   REMARKS
CHAMPAIGN      CLOUDY    36  34  92 W16       29.66R WCI  26
MATTOON        CLOUDY    37  34  89 W10       29.69R WCI  30
$$

ILZ079-100>102-250200-
SOUTHWEST ILLINOIS

CITY           SKY/WX    TMP DP  RH WIND       PRES   REMARKS
ALTON          CLOUDY    37  34  87 W9        29.78R WCI  31
BELLEVILLE     CLOUDY    38  36  90 W12       29.79R WCI  31
CAHOKIA*       CLOUDY    39  33  79 W12       29.80R WCI  32
$$

ILZ064>066-069>071-074>076-080>082-084>086-088>090-092>094-250200-
SOUTH-CENTRAL ILLINOIS

CITY           SKY/WX    TMP DP  RH WIND       PRES   REMARKS
CARBONDALE     CLOUDY    39  35  86 W8        29.81R WCI  33
MT. VERNON     MOCLDY    37  32  81 W7        29.78R WCI  32
$$

ILZ067-068-072-073-078-083-087-091-250200-
SOUTHEAST ILLINOIS

CITY           SKY/WX    TMP DP  RH WIND       PRES   REMARKS
LAWRENCEVILLE  CLOUDY    39  39 100 W14       29.74R WCI  31
$$

ABBREVIATIONS USED IN REMARKS
   TC - TEMPERATURE IN CELSIUS
  WCI - WIND CHILL INDEX
   HX - HEAT INDEX
  VSB - VISIBILITY
$$



USA.gov is the U.S. government's official web portal to all federal, state and local government web resources and services.